When you browse on this site, cookies collect data to enhance your experience and personalize the content and advertising you see.
Visit our Privacy Policy to learn more. By continuing to use the site, you agree to this use of cookies and data.
  • In Czech Republic
  • List of Countries
  • For 7 days
  • Water Temperature
  • Satellite Maps
  • Weather Map
  • Weather Widgets
  • user-avatar
    Login

    Hourly Weather Belize

    Today, 21 March, Thursday

    Time Temperature Precipitation Wind Pressure Humidity
    00:00 +25°C° 0 mm 4 mps 761 mmHg 86%
    01:00 +25°C° 0.3 mm 4 mps 761 mmHg 87%
    02:00 +25°C° 0.3 mm 4 mps 761 mmHg 88%
    03:00 +25°C° 0.3 mm 4 mps 761 mmHg 89%
    04:00 +25°C° 0.7 mm 4 mps 761 mmHg 90%
    05:00 +24°C° 0.7 mm 3 mps 761 mmHg 91%
    06:00 +24°C° 0.7 mm 3 mps 762 mmHg 92%
    07:00 +25°C° 1 mm 3 mps 762 mmHg 90%
    08:00 +26°C° 1 mm 3 mps 763 mmHg 88%
    09:00 +27°C° 1 mm 4 mps 763 mmHg 86%
    10:00 +27°C° 0.9 mm 4 mps 763 mmHg 85%
    11:00 +26°C° 0.9 mm 4 mps 763 mmHg 85%
    12:00 +26°C° 0.9 mm 4 mps 763 mmHg 84%
    13:00 +27°C° 0.2 mm 4 mps 762 mmHg 81%
    14:00 +27°C° 0.2 mm 5 mps 761 mmHg 78%
    15:00 +28°C° 0.2 mm 5 mps 761 mmHg 75%
    16:00 +27°C° 0.4 mm 5 mps 761 mmHg 79%
    17:00 +26°C° 0.4 mm 5 mps 761 mmHg 83%
    18:00 +25°C° 0.4 mm 5 mps 761 mmHg 87%
    19:00 +25°C° 0 mm 5 mps 762 mmHg 86%
    20:00 +25°C° 0 mm 4 mps 762 mmHg 85%
    21:00 +25°C° 0 mm 4 mps 763 mmHg 85%
    22:00 +25°C° 0 mm 4 mps 763 mmHg 84%
    23:00 +25°C° 0 mm 3 mps 763 mmHg 84%

    Tomorrow, 22 March, Friday

    Time Temperature Precipitation Wind Pressure Humidity
    00:00 +25°C° 0 mm 3 mps 763 mmHg 84%
    01:00 +25°C° 0.4 mm 3 mps 762 mmHg 86%
    02:00 +24°C° 0.4 mm 3 mps 762 mmHg 88%
    03:00 +24°C° 0.4 mm 3 mps 762 mmHg 90%
    04:00 +24°C° 0.6 mm 3 mps 762 mmHg 91%
    05:00 +22°C° 0.6 mm 3 mps 762 mmHg 92%
    06:00 +22°C° 0.6 mm 3 mps 763 mmHg 93%
    07:00 +23°C° 0.5 mm 4 mps 763 mmHg 87%
    08:00 +26°C° 0.5 mm 4 mps 764 mmHg 82%
    09:00 +27°C° 0.5 mm 4 mps 764 mmHg 76%
    10:00 +28°C° 0.4 mm 4 mps 764 mmHg 71%
    11:00 +29°C° 0.4 mm 4 mps 764 mmHg 66%
    12:00 +30°C° 0.4 mm 5 mps 763 mmHg 60%
    13:00 +30°C° 0.1 mm 5 mps 763 mmHg 60%
    14:00 +30°C° 0.1 mm 5 mps 762 mmHg 60%
    15:00 +30°C° 0.1 mm 5 mps 761 mmHg 59%
    16:00 +29°C° 0 mm 5 mps 761 mmHg 63%
    17:00 +27°C° 0 mm 5 mps 761 mmHg 67%
    18:00 +26°C° 0 mm 5 mps 761 mmHg 71%
    19:00 +26°C° 0 mm 5 mps 762 mmHg 72%
    20:00 +26°C° 0 mm 5 mps 762 mmHg 73%
    21:00 +26°C° 0 mm 5 mps 763 mmHg 74%
    22:00 +26°C° 0 mm 5 mps 763 mmHg 75%
    23:00 +25°C° 0 mm 4 mps 763 mmHg 75%

    Day after tomorrow, 23 March, Saturday

    Time Temperature Precipitation Wind Pressure Humidity
    00:00 +25°C° 0 mm 4 mps 763 mmHg 76%
    01:00 +25°C° 0 mm 4 mps 762 mmHg 77%
    02:00 +25°C° 0 mm 4 mps 762 mmHg 77%
    03:00 +25°C° 0 mm 3 mps 761 mmHg 78%
    04:00 +25°C° 0 mm 3 mps 762 mmHg 76%
    05:00 +25°C° 0 mm 3 mps 762 mmHg 75%
    06:00 +25°C° 0 mm 3 mps 762 mmHg 74%
    07:00 +26°C° 0 mm 3 mps 763 mmHg 71%
    08:00 +27°C° 0 mm 3 mps 763 mmHg 67%
    09:00 +27°C° 0 mm 3 mps 764 mmHg 64%
    10:00 +28°C° 0 mm 4 mps 764 mmHg 60%
    11:00 +30°C° 0 mm 4 mps 763 mmHg 56%
    12:00 +32°C° 0 mm 4 mps 763 mmHg 51%
    13:00 +30°C° 0 mm 4 mps 762 mmHg 52%
    14:00 +30°C° 0 mm 4 mps 761 mmHg 52%
    15:00 +30°C° 0 mm 4 mps 761 mmHg 52%
    16:00 +29°C° 0 mm 4 mps 761 mmHg 55%
    17:00 +27°C° 0 mm 4 mps 761 mmHg 59%
    18:00 +26°C° 0 mm 4 mps 761 mmHg 62%
    19:00 +26°C° 0 mm 4 mps 762 mmHg 63%
    20:00 +26°C° 0 mm 4 mps 762 mmHg 64%
    21:00 +25°C° 0 mm 4 mps 763 mmHg 65%
    22:00 +25°C° 0 mm 3 mps 763 mmHg 68%
    23:00 +25°C° 0 mm 3 mps 763 mmHg 70%

    24 March, Sunday

    Time Temperature Precipitation Wind Pressure Humidity
    00:00 +25°C° 0 mm 3 mps 763 mmHg 72%
    01:00 +25°C° 0 mm 3 mps 762 mmHg 75%
    02:00 +25°C° 0 mm 3 mps 762 mmHg 78%
    03:00 +24°C° 0 mm 2 mps 761 mmHg 80%
    04:00 +24°C° 0.1 mm 2 mps 761 mmHg 82%
    05:00 +24°C° 0.1 mm 2 mps 762 mmHg 84%
    06:00 +23°C° 0.1 mm 1 mps 762 mmHg 86%
    07:00 +25°C° 0.1 mm 1 mps 762 mmHg 79%
    08:00 +27°C° 0.1 mm 2 mps 763 mmHg 71%
    09:00 +29°C° 0.1 mm 2 mps 763 mmHg 64%
    10:00 +30°C° 0 mm 2 mps 763 mmHg 60%
    11:00 +31°C° 0 mm 2 mps 762 mmHg 57%
    12:00 +31°C° 0 mm 3 mps 762 mmHg 54%
    13:00 +31°C° 0 mm 3 mps 761 mmHg 54%
    14:00 +31°C° 0 mm 3 mps 760 mmHg 54%
    15:00 +31°C° 0 mm 3 mps 760 mmHg 55%
    16:00 +30°C° 0 mm 3 mps 760 mmHg 61%
    17:00 +29°C° 0 mm 3 mps 760 mmHg 68%
    18:00 +27°C° 0 mm 3 mps 760 mmHg 74%
    19:00 +27°C° 0 mm 3 mps 761 mmHg 77%
    20:00 +27°C° 0 mm 4 mps 761 mmHg 79%
    21:00 +26°C° 0 mm 4 mps 762 mmHg 81%
    22:00 +26°C° 0 mm 3 mps 762 mmHg 83%
    23:00 +26°C° 0 mm 3 mps 761 mmHg 84%

    25 March, Monday

    Time Temperature Precipitation Wind Pressure Humidity
    00:00 +26°C° 0 mm 3 mps 761 mmHg 86%
    01:00 +25°C° 0 mm 2 mps 761 mmHg 87%
    02:00 +25°C° 0 mm 2 mps 760 mmHg 89%
    03:00 +24°C° 0 mm 1 mps 760 mmHg 90%
    04:00 +24°C° 0.1 mm 1 mps 760 mmHg 92%
    05:00 +24°C° 0.1 mm 1 mps 761 mmHg 93%
    06:00 +24°C° 0.1 mm 1 mps 761 mmHg 94%
    07:00 +26°C° 0.1 mm 1 mps 761 mmHg 85%
    08:00 +28°C° 0.1 mm 1 mps 762 mmHg 76%
    09:00 +30°C° 0.1 mm 1 mps 762 mmHg 68%
    10:00 +31°C° 0 mm 1 mps 762 mmHg 62%
    11:00 +32°C° 0 mm 2 mps 761 mmHg 56%
    12:00 +34°C° 0 mm 2 mps 761 mmHg 51%
    13:00 +34°C° 0 mm 3 mps 760 mmHg 52%
    14:00 +33°C° 0 mm 3 mps 759 mmHg 54%
    15:00 +33°C° 0 mm 3 mps 759 mmHg 56%
    16:00 +30°C° 0 mm 3 mps 759 mmHg 61%
    17:00 +29°C° 0 mm 3 mps 759 mmHg 66%
    18:00 +28°C° 0 mm 3 mps 760 mmHg 72%
    19:00 +27°C° 0 mm 3 mps 760 mmHg 74%
    20:00 +27°C° 0 mm 3 mps 760 mmHg 76%
    21:00 +27°C° 0 mm 3 mps 761 mmHg 79%
    22:00 +26°C° 0 mm 3 mps 761 mmHg 80%
    23:00 +26°C° 0 mm 3 mps 761 mmHg 82%

    26 March, Tuesday

    Time Temperature Precipitation Wind Pressure Humidity
    00:00 +26°C° 0 mm 3 mps 760 mmHg 83%
    01:00 +26°C° 0 mm 3 mps 760 mmHg 84%
    02:00 +26°C° 0 mm 3 mps 760 mmHg 85%
    03:00 +26°C° 0 mm 2 mps 760 mmHg 86%
    04:00 +26°C° 0.2 mm 2 mps 760 mmHg 88%
    05:00 +25°C° 0.2 mm 2 mps 760 mmHg 90%
    06:00 +25°C° 0.2 mm 2 mps 761 mmHg 91%
    07:00 +26°C° 0.7 mm 2 mps 761 mmHg 88%
    08:00 +27°C° 0.7 mm 3 mps 762 mmHg 84%
    09:00 +28°C° 0.7 mm 3 mps 762 mmHg 80%
    10:00 +29°C° 0.5 mm 3 mps 762 mmHg 77%
    11:00 +30°C° 0.5 mm 4 mps 761 mmHg 73%
    12:00 +30°C° 0.5 mm 4 mps 761 mmHg 69%
    13:00 +32°C° 0.2 mm 4 mps 760 mmHg 66%
    14:00 +32°C° 0.2 mm 4 mps 760 mmHg 63%
    15:00 +32°C° 0.2 mm 5 mps 760 mmHg 60%
    16:00 +30°C° 0 mm 5 mps 760 mmHg 66%
    17:00 +29°C° 0 mm 5 mps 760 mmHg 71%
    18:00 +28°C° 0 mm 4 mps 760 mmHg 77%
    19:00 +27°C° 0 mm 4 mps 761 mmHg 79%
    20:00 +27°C° 0 mm 4 mps 761 mmHg 81%
    21:00 +27°C° 0 mm 4 mps 762 mmHg 82%
    22:00 +27°C° 0 mm 4 mps 761 mmHg 83%
    23:00 +26°C° 0 mm 4 mps 761 mmHg 83%
    Show more